AirNav   Everest Fuels
 
 294 users online  

PA26 WXKW Heliport
Allentown, Pennsylvania, USA

GOING TO ALLENTOWN?


FAA INFORMATION EFFECTIVE 18 JUNE 2020

Location

FAA Identifier: PA26
Lat/Long: 40-38-10.3490N 075-29-04.6590W
40-38.172483N 075-29.077650W
40.6362081,-75.4846275
(estimated)
Elevation: 385 ft. / 117 m (estimated)
Variation: 11W (1985)
From city: 1 mile W of ALLENTOWN, PA
Time zone: UTC -4 (UTC -5 during Standard Time)
Zip code: 18052

Heliport Operations

Heliport use: Private use. Permission required prior to landing
Activation date: 07/1973
Control tower: no
ARTCC: NEW YORK CENTER
FSS: WILLIAMSPORT FLIGHT SERVICE STATION
Attendance: DAYLIGHT HOURS
Wind indicator: yes
Segmented circle: no

Heliport Communications

WX ASOS at ABE (2.2 nm NE): 126.975 (610-266-3579)
WX AWOS-3 at XLL (4 nm S): 127.875 (610-231-3111)
WX AWOS-3 at UKT (13 nm S): 119.475 (215-538-7610)
WX AWOS-3PT at 22N (16 nm NW): 119.350 (570-386-3423)
WX AWOS-3 at CKZ (17 nm SE): 126.325 (215-257-7291)

Nearby radio navigation aids

VOR radial/distance  VOR name  Freq  Var
FJCr204/5.6ALLENTOWN VORTAC117.5010W
ETXr079/9.7EAST TEXAS VOR/DME110.2009W
PTWr017/25.1POTTSTOWN VORTAC116.5009W
BWZr263/31.7BROADWAY VOR/DME114.2011W
SBJr285/34.0SOLBERG VOR/DME112.9010W
ARDr321/35.0YARDLEY VOR/DME108.2010W
STWr243/35.3STILLWATER VOR/DME109.6011W
LVZr176/39.3WILKES-BARRE VORTAC111.6010W

 
NDB name  Hdg/Dist  Freq  Var  ID
AMBLER355/31.927512WING .. -. --.

Heliport Services

Airframe service: NONE
Powerplant service: NONE

Runway Information

Helipad H1

Dimensions: 500 x 400 ft. / 152 x 122 m
Surface: turf, in fair condition
Latitude: 40-38.172483N
Longitude: 075-29.077650W
Elevation: 385.0 ft.
Traffic pattern: leftleft
Markings: none, in fair condition

Heliport Ownership and Management from official FAA records

Ownership: Privately-owned
Owner: HGF ORGANIZATION, INC
HOTEL TRAYLOR/15TH & HAMILTON
ALLENTOWN, PA 18102
Phone 215-435-5913
Manager: MICHAEL J. KRAJSA

Heliport Operational Statistics

Aircraft based on the field: 1
Helicopters: 1
    

Additional Remarks

A52-H1 THREE RADIO TOWERS-M.
FOR CD CTC ALLENTOWN APCH AT 800-728-6322.

Instrument Procedures

There are no published instrument procedures at PA26.

Some nearby airports with instrument procedures:

KABE - Lehigh Valley International Airport (2 nm NE)
KXLL - Allentown Queen City Municipal Airport (4 nm S)
N43 - Braden Airpark (13 nm NE)
KUKT - Quakertown Airport (13 nm S)
22N - Jake Arner Memorial Airport (16 nm NW)
KCKZ - Pennridge Airport (17 nm SE)
 
Loc | Ops | Rwys | IFR | FBO | Links
Com | Nav | Svcs | Stats | Notes
Area around PA26 (WXKW Heliport)
 
Road maps at: MapQuest Bing Google
 
Aerial photo
No photo
 
Sectional chart

 
Airport distance calculator
Flying to WXKW Heliport? Find the distance to fly.

From to PA26

Sunrise and sunset
Times for 15-Jul-2020
 Local
(UTC-4)
 Zulu
(UTC)
Morning civil twilight05:1309:13
Sunrise05:4609:46
Sunset20:3000:30
Evening civil twilight21:0301:03

Current date and time
Zulu (UTC)  15-Jul-2020 08:01:01
Local (UTC-4)  15-Jul-2020 04:01:01
 
METAR
KABE 
2nm NE 
150751Z 00000KT 10SM CLR 19/16 A3011 RMK AO2 SLP193 T01890161
KXLL 
4nm S 
150735Z AUTO 00000KT 10SM CLR 19/17 A3012 RMK AO2
KUKT 
13nm S 
150755Z AUTO 00000KT 10SM CLR 18/18 A3011 RMK A01
K22N 
16nm NW 
150744Z AUTO 00000KT 7SM CLR 15/15 A3013 RMK AO2
KCKZ 
17nm SE 
150735Z AUTO 00000KT 10SM CLR 18/18 A3012 RMK AO2
TAF
KABE 
2nm NE 
150520Z 1506/1606 VRB03KT P6SM FEW100 FM151700 15005KT P6SM SCT050
NOTAMs
Click for the latest NOTAMs
NOTAMs are issued by the DoD/FAA and will open in a separate window not controlled by AirNav.

 

 
 

Would you like to see your business listed on this page?

 If your business provides an interesting product or service to pilots, flight crews, aircraft, or users of the WXKW Heliport, you should consider listing it here.  To start the listing process, click on the button below
 
Add a business
 

Other Pages about WXKW Heliport

Update a link
 
Copyright © AirNav, LLC. All rights reserved. Privacy Policy  Contact